Location: ??????
(55.0062°N, 37.8342°E)
Time: 05:39:48
(UTC+00:00)

Daily predictions for brighter satellites

Satellite Brightness Start Highest point End
(mag) Time Altitude Azimuth Time Altitude Azimuth Time Altitude Azimuth
Cosmos 1943 Rocket 4.5 00:13:00 17° NNE 00:13:00 17° NNE 00:14:39 10° NNE
Cosmos 2278 Rocket 4.4 00:13:18 19° NNE 00:13:18 19° NNE 00:15:10 10° NNE
ACS3 Solar Sail 3.6 00:13:53 10° N 00:15:49 22° N 00:15:49 22° N
ADEOS II 4.2 00:17:55 10° NNE 00:19:45 22° NNE 00:19:45 22° NNE
CENTAUR R/B 3.5 00:32:22 49° NNE 00:32:22 49° NNE 00:38:41 10° NE
Resurs 1-4 Rocket 4.2 00:28:27 10° NNE 00:30:07 21° NNE 00:30:07 21° NNE
Cosmos 2263 Rocket 4.0 00:42:22 26° NNE 00:43:32 27° NNE 00:48:20 10° E
Cosmos 2369 Rocket 3.6 00:54:17 32° NNE 00:54:17 32° NNE 00:57:25 10° NNE
USA 215 3.5 00:49:56 10° ESE 00:55:27 65° E 00:55:27 65° E
SL-16 R/B 4.5 01:09:48 16° NNW 01:09:48 16° NNW 01:10:59 10° NNW
Cosmos 2218 Rocket 4.3 01:05:42 62° E 01:05:49 62° E 01:12:08 10° NNE
Cosmos 2227 Rocket 3.1 01:09:24 43° NNE 01:10:07 46° NE 01:15:34 10° ESE
CZ-2C R/B 3.6 01:14:59 10° NNE 01:19:10 37° E 01:19:10 37° E
Cosmos 1821 Rocket 4.3 01:25:34 47° SSE 01:27:12 63° E 01:33:16 10° NNE
H-2A R/B 3.3 01:22:06 10° NNE 01:25:07 34° N 01:25:07 34° N
NOSS 3-2 (A) 3.8 01:28:48 51° N 01:28:48 51° N 01:35:04 10° NE
CZ-2D R/B 3.6 01:26:05 10° N 01:28:45 27° N 01:28:45 27° N
Cosmos 1850 Rocket 4.5 01:36:52 55° NNE 01:36:52 55° NNE 01:41:02 10° NNE
Cosmos 2344 3.7 01:39:39 57° W 01:41:04 65° SW 01:51:11 10° SSE
Meteor 2-21 4.3 01:38:56 10° NNW 01:45:06 85° W 01:51:12 10° S
Cosmos 1741 Rocket 4.3 01:46:53 57° N 01:46:53 57° N 01:51:08 10° NNE
SJ 16-02 3.9 01:49:46 12° N 01:49:46 12° N 01:50:13 10° N
Meteor 1-21 Rocket 4.3 01:42:13 10° NNW 01:48:07 77° ENE 01:53:52 10° SSE
Lacrosse 4 Rocket 3.9 01:48:31 12° N 01:48:31 12° N 01:49:53 10° NNE
Meteor 2-21 Rocket 4.5 01:42:12 10° N 01:48:24 77° ENE 01:54:31 10° SSE
Molniya-1 4.4 01:49:13 48° SE 01:49:29 49° ESE 01:57:03 10° NE
USA 238 DEB 3.8 01:48:27 50° S 01:49:58 65° SE 01:56:47 10° NE
USA 238 3.8 01:48:32 49° S 01:50:06 64° SE 01:56:55 10° NE
Cosmos 1570 Rocket 4.1 01:49:07 56° N 01:50:07 72° ENE 01:55:19 10° SE
ADEOS Rocket 4.1 01:48:18 10° N 01:51:34 26° NNW 01:51:34 26° NNW
Exosat Rocket 3.9 01:48:06 10° NNW 01:54:39 71° NE 01:59:46 10° SE
Cosmos 2297 Rocket 3.5 01:58:25 26° S 01:58:25 26° S 02:00:51 10° SSE
Cosmos 1733 Rocket 4.4 01:52:12 14° SSE 01:55:31 38° E 01:59:33 10° NNE
Cosmos 1943 Rocket 4.2 01:54:28 15° NNW 01:55:34 16° N 01:58:54 10° NNE
Cosmos 2278 Rocket 4.1 01:55:06 16° NNW 01:56:09 17° N 01:59:44 10° NNE
In-Cosmos 22 Rocket 4.1 01:50:39 10° NNW 01:56:27 78° W 02:02:17 10° S
Meteor 1-12 Rocket 4.0 01:56:09 78° SW 01:56:31 83° WNW 02:02:12 10° NNE
Cosmos 1697 Rocket 4.1 01:53:06 10° S 01:58:08 35° ESE 02:03:12 10° NE
SL-4 R/B 3.7 02:00:50 23° SE 02:00:50 23° SE 02:02:29 10° ESE
ACS3 Solar Sail 3.5 01:57:31 10° N 01:59:36 16° NNW 01:59:36 16° NNW
Cosmos 2341 Rocket 4.1 02:02:12 56° WNW 02:02:12 56° WNW 02:08:14 10° N
ADEOS II 3.4 01:57:47 10° N 02:00:34 26° NNW 02:00:34 26° NNW
Cosmos 1378 Rocket 4.0 02:00:15 10° N 02:04:30 59° ENE 02:08:43 10° SSE
Cosmos 1959 Rocket 4.4 02:05:36 61° W 02:05:57 62° WNW 02:12:05 10° N
Cosmos 2219 4.1 02:01:28 15° NNW 02:05:59 47° NE 02:11:28 10° ESE
Meteor 2-15 Rocket 4.5 02:01:41 18° S 02:06:26 81° E 02:12:36 10° NNE
Cosmos 2208 Rocket 4.2 02:04:10 22° NNW 02:07:46 74° ENE 02:13:12 10° SSE
Cosmos 1939 Rocket 3.3 02:04:22 10° NNE 02:08:08 56° E 02:08:11 56° ESE
Cosmos 2366 rocket 4.1 02:07:56 55° W 02:08:09 55° WNW 02:14:26 10° N
NOSS 2-3 (E) 4.1 02:09:43 45° NNE 02:09:43 45° NNE 02:12:58 10° NE
Resurs 1-4 Rocket 3.8 02:08:58 10° N 02:11:09 19° NNW 02:11:09 19° NNW
ARGOS 3.1 02:07:41 10° N 02:13:00 60° WNW 02:13:01 60° WNW
Cosmos 292 Rocket 4.2 02:14:36 45° NNW 02:14:36 45° NNW 02:18:22 10° NNE
Cosmos 1000 Rocket 4.4 02:11:57 10° NNW 02:18:15 71° W 02:24:31 10° S
NOSS 3-2 (C) 3.6 02:20:02 45° WNW 02:21:16 53° NNW 02:27:58 10° NE
Cosmos 1025 Rocket 3.8 02:17:38 10° N 02:21:55 52° ENE 02:26:10 10° SSE
CENTAUR R/B 3.6 02:19:27 28° NW 02:22:52 45° N 02:31:00 10° ENE
Cosmos 773 Rocket 3.9 02:20:22 26° NNW 02:23:28 84° WSW 02:28:42 10° SSE
Cosmos 2242 Rocket 4.2 02:26:54 41° SSW 02:26:54 41° SSW 02:29:52 10° S
Cosmos 2123 Rocket 3.9 02:20:34 10° NNW 02:26:52 83° W 02:33:04 10° S
Cosmos 2263 Rocket 2.2 02:24:02 19° NNW 02:28:16 83° NE 02:33:56 10° SE
SL-24 R/B 4.4 02:26:28 10° NNE 02:31:10 83° ESE 02:36:34 10° SSW
Cosmos 2292 Rocket 3.8 02:29:20 10° NNW 02:33:44 67° W 02:39:21 10° S
PAYLOAD A 4.0 02:29:11 10° NNE 02:34:22 71° WNW 02:37:22 26° SSW
Cosmos 2369 Rocket 3.6 02:36:03 22° NW 02:36:56 23° NNW 02:41:24 10° NNE
Cosmos 2082 4.2 02:31:39 11° NNW 02:37:09 59° NE 02:42:46 10° SE
Cosmos 836 Rocket 4.5 02:35:12 32° NW 02:37:32 59° WSW 02:42:40 10° S
USA 59 Rocket 1.2 02:37:39 17° S 02:39:19 26° SE 02:41:54 10° ENE
Cosmos 1674 Rocket 3.5 02:34:58 10° NNW 02:39:27 88° ENE 02:43:52 10° S
USA 215 3.4 02:33:25 10° SE 02:39:52 56° SW 02:42:49 33° W
H-2A R/B 4.1 02:40:02 10° N 02:40:52 14° NNW 02:40:52 14° NNW
Cosmos 2360 4.1 02:41:28 32° SW 02:44:10 71° NW 02:49:55 10° NNE
Cosmos 1869 Rocket 4.3 02:49:29 33° NW 02:49:29 33° NW 02:52:46 10° N
Cosmos 1656 3.8 02:47:17 35° WSW 02:49:24 55° NW 02:54:55 10° NNE
Cosmos 1727 Rocket 4.4 02:46:37 10° NNW 02:52:09 36° W 02:57:41 10° SSW
H-2A R/B 3.1 02:49:01 10° NNE 02:52:53 78° WNW 02:55:42 17° SSW
Cosmos 2227 Rocket 2.4 02:51:14 25° NW 02:54:15 48° WSW 02:59:39 10° S
SL-08 R/B 4.5 02:48:45 10° SSW 02:55:10 70° WNW 03:01:40 10° N
CZ-2C R/B 2.7 02:53:06 10° N 02:57:23 39° WNW 02:58:23 34° W
NOAA 12 4.1 02:58:42 10° NNE 03:04:00 90° WNW 03:09:18 10° SSW
COSMO-SKYMED 1 2.3 03:00:46 10° S 03:04:50 67° WSW 03:08:58 10° NNW
H-2A R/B 3.7 03:02:31 10° N 03:05:38 17° NW 03:05:38 17° NW
SKYMED 2 3.8 03:01:44 10° S 03:05:52 43° W 03:10:03 10° NNW
Cosmos 1934 Rocket 3.9 03:02:00 10° SSW 03:08:06 71° WNW 03:14:21 10° N
SL-24 R/B - RUBIN 2 4.1 03:07:18 30° W 03:09:07 45° NNW 03:13:25 10° NE
CZ-2D R/B 4.1 03:07:44 10° NNW 03:09:56 13° NW 03:10:01 13° NW
Cosmos 1812 4.4 03:08:19 10° SSE 03:10:17 22° E 03:12:16 10° NE
IRS-1D 3.5 03:05:41 10° NNE 03:10:59 87° WNW 03:16:09 10° SSW
NOSS 2-3 (D) 4.3 03:15:36 25° WNW 03:17:04 33° NNW 03:21:08 10° NE
Cosmos 1975 Rocket 4.0 03:12:56 10° N 03:17:07 48° ENE 03:21:16 10° SSE
CZ-4 R/B 3.9 03:13:22 10° NNE 03:18:23 89° WNW 03:23:22 10° SSW
FengYun 1-2 T 4.4 03:13:19 10° N 03:18:38 51° WNW 03:23:54 10° SW
NOSS 3-2 (A) 4.4 03:16:08 18° WNW 03:20:25 41° N 03:27:28 10° ENE
Cosmos 1605 Rocket 4.0 03:17:18 10° S 03:23:43 87° W 03:30:09 10° N
Cosmos 2221 Rocket 3.6 03:19:36 10° NNW 03:24:05 58° W 03:28:31 10° S
Cosmos 1461 3.8 03:22:57 13° NW 03:25:57 36° NNE 03:29:26 10° E
Helios 1A Rocket 2.2 03:23:24 10° SSE 03:26:41 89° WSW 03:30:00 10° NNW
Lacrosse 4 Rocket 3.4 03:24:29 10° NNW 03:27:23 19° NNE 03:30:18 10° ENE
Cosmos 1908 Rocket 3.5 03:23:28 10° S 03:27:49 89° E 03:32:15 10° NNE
Cosmos 1538 Rocket 4.4 03:23:35 10° NNW 03:28:57 69° ENE 03:34:13 10° SE
Cosmos 1503 Rocket 4.3 03:24:27 10° SSW 03:29:36 72° ESE 03:34:51 10° NNE
Cosmos 1980 Rocket 2.5 03:24:14 10° SSW 03:29:46 69° ESE 03:35:21 10° NE
Cosmos 1733 Rocket 3.7 03:29:19 10° SW 03:33:15 32° WNW 03:37:10 10° N
SL-4 R/B 3.3 03:34:27 17° WSW 03:36:01 22° SSW 03:38:57 10° SSE
NOSS 2-3 (C) 4.4 03:35:28 19° WNW 03:37:31 31° NNW 03:41:28 10° NE
Cosmos 1844 Rocket 3.0 03:33:01 10° NNW 03:38:43 68° NE 03:44:20 10° SE
USA 238 DEB 3.9 03:35:53 15° W 03:41:09 55° NNW 03:48:12 10° NE
USA 238 3.9 03:35:59 15° W 03:41:16 55° NNW 03:48:20 10° NE
Cosmos 1943 Rocket 4.2 03:37:36 10° NNW 03:41:32 19° NNE 03:45:30 10° ENE
Cosmos 1939 Rocket 4.1 03:38:52 10° NNW 03:41:43 20° WNW 03:43:01 17° W
Cosmos 1697 Rocket 2.8 03:36:17 10° SW 03:41:52 59° NW 03:47:29 10° NNE
Intercosmos 25 Rocket 4.1 03:38:55 10° NNW 03:42:03 24° W 03:44:41 10° SW
SMAP 4.1 03:37:31 10° NNE 03:42:04 50° E 03:46:36 10° S
Cosmos 2278 Rocket 4.2 03:38:30 10° NNW 03:42:30 19° NNE 03:46:29 10° ENE
NOSS 2-1 (D) 2.6 03:41:21 10° SW 03:44:42 86° SE 03:47:40 10° NE
GP-B 3.0 03:43:11 10° N 03:47:32 68° W 03:51:53 10° SSW
COSMOS 2455 2.9 03:41:46 10° SW 03:47:49 89° SE 03:53:54 10° NE
NOSS 2-1 (C) 2.7 03:45:56 10° SW 03:49:20 85° SE 03:52:19 10° NE
Cosmos 2219 3.5 03:44:42 10° NW 03:50:11 47° WSW 03:55:35 10° S
Cosmos 1400 Rocket 2.6 03:48:55 10° SSW 03:52:43 89° NW 03:56:34 10° NNE
NOSS 2-1 (E) 2.8 03:50:26 10° SW 03:53:55 82° SE 03:56:58 10° NE
Cosmos 2227 4.2 03:48:21 10° NNW 03:54:02 88° NE 03:59:43 10° SSE
ARIANE 5 R/B 4.1 03:50:58 10° NNE 03:55:40 40° E 04:00:21 10° SSE
Cosmos 1486 Rocket 4.1 03:50:58 10° SW 03:56:12 58° WNW 04:01:28 10° NNE
Cosmos 1777 Rocket 4.0 03:51:41 10° SW 03:56:50 66° WNW 04:02:02 10° NNE
Cosmos 1484 Rocket 2.4 03:54:45 10° NNE 03:58:15 75° WNW 04:01:45 10° SSW
Cosmos 1025 Rocket 4.1 03:55:37 10° NW 03:59:04 23° W 04:02:30 10° SW
SL-08 R/B 4.4 03:55:59 10° SE 04:00:36 48° ENE 04:05:10 10° N
NOSS 7 (E) 4.3 04:00:58 11° NW 04:03:57 59° SW 04:07:07 10° SE
CBERS-1 4.1 03:59:33 10° NNE 04:04:42 86° ESE 04:09:49 10° SSW
Cosmos 1680 Rocket 4.3 04:02:10 10° NNW 04:07:24 53° NE 04:12:35 10° SE
Thor Agena Rocket 4.3 04:02:19 10° NNE 04:07:32 61° ESE 04:12:45 10° S
MOS 1 Rocket 3.1 04:03:41 10° NNE 04:07:59 88° ESE 04:12:23 10° SSW
Cosmos 2263 Rocket 3.3 04:07:11 10° NW 04:11:34 23° WSW 04:15:54 10° SSW
Cosmos 1602 3.6 04:10:19 10° NNW 04:12:53 32° W 04:15:26 10° SSW
NOSS 2-2 (C) 4.1 04:09:56 10° NW 04:13:06 41° NNE 04:17:05 10° ESE
NOSS 3-2 (C) 4.4 04:07:35 10° WNW 04:13:21 41° N 04:20:24 10° ENE
CENTAUR R/B 3.5 04:07:16 10° NW 04:14:47 65° NNE 04:23:50 10° ESE
NOSS 3-1 (C) 3.2 04:12:30 10° SW 04:17:21 81° SE 04:23:25 10° NE
Cosmos 1300 Rocket 3.7 04:14:45 10° SSW 04:19:03 51° WNW 04:23:22 10° N
Cosmos 2082 4.4 04:15:53 10° NW 04:21:00 35° WSW 04:26:05 10° S
Cosmos 1354 Rocket 4.0 04:16:54 10° SW 04:22:07 69° WNW 04:27:23 10° NNE
NOSS 3-1 (A) 4.3 04:17:46 10° SSW 04:22:20 45° SE 04:27:53 10° NE
Cosmos 2369 Rocket 4.1 04:19:39 10° NW 04:23:08 16° N 04:26:35 10° NE
IGS 5A 3.9 04:20:05 10° N 04:23:43 35° WNW 04:27:21 10° SW
Cosmos 2369 3.8 04:18:18 10° SSW 04:23:59 89° NW 04:29:42 10° NNE
Cosmos 1536 Rocket 4.2 04:19:37 10° N 04:24:02 61° ENE 04:28:25 10° SSE
